Stündliche Wetter Julianow

Heute, 2 März, Dienstag

Zeit Temperatur Niederschläge Wind Luftdruck Luftfeuchtigkeit
00:00 -1°C° 0 mm 4 m/S 765 mmHg 94%
01:00 -1°C° 0 mm 4 m/S 765 mmHg 93%
02:00 -1°C° 0 mm 4 m/S 765 mmHg 94%
03:00 -1°C° 0 mm 4 m/S 764 mmHg 94%
04:00 -1°C° 0 mm 4 m/S 764 mmHg 94%
05:00 -1°C° 0 mm 4 m/S 764 mmHg 94%
06:00 -1°C° 0 mm 4 m/S 764 mmHg 94%
07:00 -1°C° 0 mm 4 m/S 764 mmHg 94%
08:00 +1°C° 0 mm 5 m/S 764 mmHg 88%
09:00 +2°C° 0 mm 5 m/S 764 mmHg 81%
10:00 +5°C° 0 mm 5 m/S 764 mmHg 75%
11:00 +6°C° 0 mm 5 m/S 764 mmHg 70%
12:00 +7°C° 0 mm 5 m/S 764 mmHg 65%
13:00 +8°C° 0 mm 5 m/S 763 mmHg 59%
14:00 +8°C° 0 mm 5 m/S 763 mmHg 60%
15:00 +8°C° 0 mm 5 m/S 763 mmHg 61%
16:00 +8°C° 0 mm 4 m/S 762 mmHg 62%
17:00 +6°C° 0 mm 4 m/S 763 mmHg 68%
18:00 +5°C° 0 mm 3 m/S 763 mmHg 74%
19:00 +4°C° 0 mm 3 m/S 764 mmHg 80%
20:00 +3°C° 0 mm 3 m/S 764 mmHg 82%
21:00 +4°C° 0 mm 2 m/S 764 mmHg 85%
22:00 +3°C° 0 mm 2 m/S 764 mmHg 87%
23:00 +3°C° 0 mm 2 m/S 764 mmHg 88%

Morgen, 3 März, Mittwoch

Zeit Temperatur Niederschläge Wind Luftdruck Luftfeuchtigkeit
00:00 +3°C° 0 mm 1 m/S 764 mmHg 89%
01:00 +3°C° 0 mm 1 m/S 765 mmHg 90%
02:00 +2°C° 0 mm 1 m/S 764 mmHg 90%
03:00 +2°C° 0 mm 1 m/S 764 mmHg 91%
04:00 +1°C° 0 mm 0 m/S 763 mmHg 91%
05:00 +1°C° 0 mm 0 m/S 763 mmHg 91%
06:00 +1°C° 0 mm 0 m/S 763 mmHg 90%
07:00 +1°C° 0 mm 0 m/S 763 mmHg 90%
08:00 +4°C° 0 mm 1 m/S 763 mmHg 83%
09:00 +5°C° 0 mm 1 m/S 763 mmHg 76%
10:00 +7°C° 0 mm 1 m/S 762 mmHg 69%
11:00 +7°C° 0 mm 2 m/S 762 mmHg 64%
12:00 +8°C° 0 mm 2 m/S 761 mmHg 59%
13:00 +9°C° 0 mm 2 m/S 761 mmHg 54%
14:00 +9°C° 0 mm 2 m/S 760 mmHg 55%
15:00 +9°C° 0 mm 2 m/S 759 mmHg 56%
16:00 +9°C° 0 mm 2 m/S 758 mmHg 57%
17:00 +8°C° 0 mm 2 m/S 758 mmHg 62%
18:00 +7°C° 0 mm 2 m/S 758 mmHg 66%
19:00 +5°C° 0 mm 2 m/S 757 mmHg 71%
20:00 +4°C° 0 mm 3 m/S 757 mmHg 73%
21:00 +4°C° 0 mm 3 m/S 756 mmHg 75%
22:00 +3°C° 0 mm 3 m/S 755 mmHg 77%
23:00 +3°C° 0 mm 3 m/S 755 mmHg 79%

übermorgen, 4 März, Donnerstag

Zeit Temperatur Niederschläge Wind Luftdruck Luftfeuchtigkeit
00:00 +3°C° 0 mm 4 m/S 754 mmHg 80%
01:00 +3°C° 0 mm 4 m/S 754 mmHg 82%
02:00 +3°C° 0 mm 4 m/S 753 mmHg 85%
03:00 +3°C° 0 mm 4 m/S 752 mmHg 87%
04:00 +1°C° 0 mm 5 m/S 752 mmHg 90%
05:00 +1°C° 0 mm 5 m/S 751 mmHg 91%
06:00 +1°C° 0 mm 5 m/S 751 mmHg 92%
07:00 +1°C° 0 mm 5 m/S 751 mmHg 93%
08:00 +3°C° 0 mm 5 m/S 751 mmHg 87%
09:00 +5°C° 0 mm 5 m/S 750 mmHg 82%
10:00 +5°C° 0 mm 6 m/S 750 mmHg 76%
11:00 +7°C° 0 mm 6 m/S 750 mmHg 73%
12:00 +7°C° 0 mm 6 m/S 749 mmHg 69%
13:00 +8°C° 0 mm 6 m/S 749 mmHg 65%
14:00 +7°C° 0 mm 5 m/S 749 mmHg 66%
15:00 +7°C° 0 mm 5 m/S 748 mmHg 66%
16:00 +6°C° 0 mm 5 m/S 748 mmHg 67%
17:00 +5°C° 0 mm 4 m/S 748 mmHg 71%
18:00 +4°C° 0 mm 3 m/S 748 mmHg 75%
19:00 +3°C° 0 mm 3 m/S 748 mmHg 78%
20:00 +3°C° 0 mm 3 m/S 748 mmHg 80%
21:00 +3°C° 0 mm 2 m/S 748 mmHg 81%
22:00 +3°C° 0 mm 2 m/S 748 mmHg 83%
23:00 +2°C° 0 mm 2 m/S 748 mmHg 86%

5 März, Freitag

Zeit Temperatur Niederschläge Wind Luftdruck Luftfeuchtigkeit
00:00 +1°C° 0 mm 3 m/S 748 mmHg 90%
01:00 0°C° 0 mm 3 m/S 748 mmHg 93%
02:00 -1°C° 0.1 mm 4 m/S 748 mmHg 92%
03:00 -2°C° 0.1 mm 4 m/S 749 mmHg 90%
04:00 -2°C° 0.1 mm 4 m/S 749 mmHg 88%
05:00 -2°C° 0 mm 4 m/S 749 mmHg 83%
06:00 -2°C° 0 mm 4 m/S 750 mmHg 77%
07:00 -3°C° 0 mm 4 m/S 751 mmHg 71%
08:00 -2°C° 0 mm 4 m/S 751 mmHg 63%
09:00 -2°C° 0 mm 4 m/S 752 mmHg 55%
10:00 -1°C° 0 mm 5 m/S 752 mmHg 47%
11:00 0°C° 0 mm 4 m/S 752 mmHg 42%
12:00 0°C° 0 mm 4 m/S 753 mmHg 37%
13:00 +1°C° 0 mm 4 m/S 753 mmHg 33%
14:00 +1°C° 0 mm 4 m/S 753 mmHg 34%
15:00 +1°C° 0 mm 4 m/S 754 mmHg 36%
16:00 +2°C° 0 mm 3 m/S 754 mmHg 37%
17:00 +1°C° 0 mm 3 m/S 754 mmHg 42%
18:00 +1°C° 0 mm 2 m/S 755 mmHg 47%
19:00 -1°C° 0 mm 2 m/S 756 mmHg 51%
20:00 -1°C° 0 mm 2 m/S 756 mmHg 56%
21:00 -1°C° 0 mm 2 m/S 757 mmHg 60%
22:00 -1°C° 0 mm 2 m/S 757 mmHg 64%
23:00 -2°C° 0.1 mm 2 m/S 757 mmHg 68%

6 März, Samstag

Zeit Temperatur Niederschläge Wind Luftdruck Luftfeuchtigkeit
00:00 -2°C° 0.1 mm 3 m/S 758 mmHg 73%
01:00 -2°C° 0.1 mm 3 m/S 758 mmHg 77%
02:00 -4°C° 0 mm 3 m/S 758 mmHg 76%
03:00 -4°C° 0 mm 4 m/S 759 mmHg 75%
04:00 -4°C° 0 mm 4 m/S 759 mmHg 74%
05:00 -4°C° 0 mm 4 m/S 759 mmHg 73%
06:00 -4°C° 0 mm 4 m/S 760 mmHg 73%
07:00 -4°C° 0 mm 4 m/S 761 mmHg 72%
08:00 -3°C° 0 mm 4 m/S 761 mmHg 64%
09:00 -2°C° 0 mm 4 m/S 761 mmHg 56%
10:00 -1°C° 0 mm 4 m/S 762 mmHg 49%
11:00 -1°C° 0 mm 4 m/S 762 mmHg 46%
12:00 0°C° 0 mm 5 m/S 762 mmHg 43%
13:00 0°C° 0 mm 5 m/S 762 mmHg 40%
14:00 0°C° 0 mm 5 m/S 762 mmHg 41%
15:00 0°C° 0 mm 5 m/S 762 mmHg 42%
16:00 0°C° 0 mm 5 m/S 762 mmHg 43%
17:00 -1°C° 0 mm 4 m/S 762 mmHg 48%
18:00 -2°C° 0 mm 4 m/S 762 mmHg 54%
19:00 -2°C° 0 mm 3 m/S 762 mmHg 60%
20:00 -3°C° 0 mm 4 m/S 762 mmHg 58%
21:00 -3°C° 0 mm 4 m/S 761 mmHg 57%
22:00 -4°C° 0 mm 5 m/S 761 mmHg 56%
23:00 -2°C° 0 mm 5 m/S 761 mmHg 56%

7 März, Sonntag

Zeit Temperatur Niederschläge Wind Luftdruck Luftfeuchtigkeit
00:00 -3°C° 0 mm 6 m/S 761 mmHg 56%
01:00 -3°C° 0 mm 6 m/S 760 mmHg 56%
02:00 -3°C° 0 mm 6 m/S 760 mmHg 61%
03:00 -3°C° 0 mm 6 m/S 760 mmHg 65%
04:00 -4°C° 0 mm 6 m/S 759 mmHg 70%
05:00 -3°C° 0 mm 6 m/S 759 mmHg 74%
06:00 -3°C° 0 mm 6 m/S 759 mmHg 79%
07:00 -3°C° 0 mm 7 m/S 759 mmHg 83%
08:00 -3°C° 0.1 mm 7 m/S 758 mmHg 83%
09:00 -2°C° 0.1 mm 7 m/S 758 mmHg 83%
10:00 -2°C° 0.1 mm 8 m/S 758 mmHg 83%
11:00 -2°C° 0 mm 8 m/S 758 mmHg 81%
12:00 -2°C° 0 mm 8 m/S 757 mmHg 78%
13:00 -2°C° 0 mm 8 m/S 757 mmHg 76%
14:00 -2°C° 0 mm 8 m/S 756 mmHg 74%
15:00 -2°C° 0 mm 7 m/S 756 mmHg 73%
16:00 -2°C° 0 mm 7 m/S 755 mmHg 71%
17:00 -2°C° 0 mm 7 m/S 754 mmHg 71%
18:00 -2°C° 0 mm 7 m/S 754 mmHg 72%
19:00 -2°C° 0 mm 6 m/S 754 mmHg 72%
20:00 -2°C° 0 mm 7 m/S 753 mmHg 78%
21:00 -2°C° 0 mm 7 m/S 753 mmHg 84%
22:00 -2°C° 0 mm 7 m/S 752 mmHg 91%
23:00 -2°C° 0 mm 7 m/S 752 mmHg 92%
Mehr zeigen

Wir brauchen deine Erlaubnis

Meteoprog und unser Service Anbieter werden persönliche Daten aufbewahren, so wie Cookies, Geräte Bezeichnung oder ähnliche Technologien von deinem Gerät und Prozess, so wie Persönliche Daten Inhalte und Werbungen, genauso wie social Media und den Verkehr zu analysieren.

  • Aufbewahrung und/oder Zugang zu deiner Geräte Informationen.

    Cookies, Geräte Bezeichnung oder andere Informationen, können aufbewahrt oder Zugang zu deinem Gerät erhalten, für den Grund, der oben angegeben wird.

  • Personalisierte Werbung und Inhalte, Messungen, Einblick in das Publikum und Produkt Entwicklung.

    Werbungen und Inhalte können personalisiert werden, basierend auf ein Profil. Mehr Daten können besser personalisierte Werbungen und Inhalte hinzufügen. Werbung und Inhalte können gezeigt und gemessen werden. Einblicke über das Publikum, welche die Werbung gesehen haben und den Inhalt, können abgeleitet werden. So wie Daten können genutzt werden, um es zu verbessern oder die Benutzer Erfahrung zu verbessern das System und die Software.

Wenn du “Ich stimme zu” klickst, erlaubst du uns, die Cookies zu benutzen die Geräte Bezeichnung, den Web oder ähnliche Technologien zu benutzen. Deine Settings, können in deinem Gerät bei deinem Browser geändert werden.

Für den bestimmten Zweck, berechtigten Interessen beruhen darauf, mehr als auf den Inhalt. Du kannst mehr darüber in unseren Privaten und Cookie Politik lesen.